Home   Weather   Salinas   Past weeks

Flag for USA Past Weather in Salinas, California, USA — Yesterday and Last 2 Weeks

Now
56 °F

Clear.


Feels Like: 55 °F
Forecast: 54 / 68 °F
Wind: 6 mph from Northwest

Location: Salinas Municipal Airport

Current Time: Jul 21, 2017 at 2:39:14 am

Latest Report: Jul 21, 2017 at 1:53 am


Visibility: 10 mi

Pressure: 30.05 "Hg

Humidity: 87%

Dew Point: 52 °F

Location of SalinasLocation

Past Weather in Salinas — Graph

°F

Salinas Temperature Yesterday

Maximum temperature yesterday: 66 °F (at 4:53 pm)
Minimum temperature yesterday: 57 °F (at 12:53 am)
Average temperature yesterday: 60 °F

High & Low Weather Summary for the Past Weeks

 TemperatureHumidityPressure
High80 °F (Jul 8, 11:53 am)100% (Jul 6, 6:31 am)30.12 "Hg (Jul 6, 6:31 am)
Low52 °F (Jul 10, 6:00 am)39% (Jul 16, 3:53 pm)29.85 "Hg (Jul 16, 5:53 pm)
Average61 °F78%30.00 "Hg
* Reported Jul 6 12:53 am — Jul 21 12:53 am, Salinas. Weather by CustomWeather, © 2017

Note: Actual official high and low records may vary slightly from our data, if they occured in-between our weather recording intervals... More about our weather records

Advertising

Salinas Weather History for the Previous 24 Hours

Scroll right to see more
 ConditionsComfort  
Time TempWeatherWind HumidityBarometerVisibility
12:53 am
Fri, Jul 21
57 °FClear.7 mph83%30.06 "Hg10 mi
11:53 pm
Thu, Jul 20
57 °FClear.8 mph83%30.06 "Hg10 mi
10:53 pm58 °FClear.9 mph84%30.06 "Hg10 mi
9:53 pm59 °FClear.9 mph81%30.07 "Hg10 mi
8:53 pm60 °FClear.13 mph78%30.06 "Hg10 mi
7:53 pm62 °FSunny.13 mph75%30.06 "Hg10 mi
6:53 pm63 °FSunny.13 mph73%30.05 "Hg10 mi
5:53 pm64 °FSunny.12 mph70%30.06 "Hg10 mi
4:53 pm66 °FSunny.14 mph65%30.06 "Hg10 mi
3:53 pm65 °FSunny.16 mph68%30.08 "Hg10 mi
2:53 pm65 °FSunny.15 mph68%30.09 "Hg10 mi
1:53 pm64 °FSunny.16 mph70%30.10 "Hg10 mi
12:53 pm65 °FSunny.15 mph68%30.11 "Hg10 mi
11:53 am64 °FSunny.14 mph70%30.11 "Hg10 mi
10:53 am63 °FSunny.9 mph70%30.12 "Hg10 mi
10:36 am62 °FScattered clouds.9 mph73%30.10 "Hg10 mi
9:53 am60 °FPartly sunny.9 mph80%30.12 "Hg10 mi
8:53 am57 °FLow clouds.9 mph87%30.12 "Hg8 mi
7:53 am57 °FLow clouds.8 mph87%30.11 "Hg10 mi
6:53 am57 °FLow clouds.7 mph87%30.10 "Hg10 mi
5:53 am57 °FLow clouds.9 mph90%30.09 "Hg10 mi
4:53 am57 °FLow clouds.10 mph90%30.08 "Hg10 mi
3:53 am58 °FOvercast.9 mph87%30.08 "Hg10 mi
2:53 am57 °FOvercast.10 mph90%30.07 "Hg10 mi
2:25 am57 °FPassing clouds.9 mph87%30.05 "Hg10 mi
Weather by CustomWeather, © 2017

See weather overviewHow to use our weather pages